Year,Month,Day,Hour,Minute,Value (Times are PST for temperature in C)
2018,11,19,00,00,-1.30
2018,11,19,00,01,-1.30
2018,11,19,00,02,-1.30
2018,11,19,00,03,-1.30
2018,11,19,00,04,-1.30
2018,11,19,00,05,-1.30
2018,11,19,00,06,-1.30
2018,11,19,00,07,-1.30
2018,11,19,00,08,-1.30
2018,11,19,00,09,-1.30
2018,11,19,00,10,-1.30
2018,11,19,00,11,-1.30
2018,11,19,00,12,-1.30
2018,11,19,00,13,-1.30
2018,11,19,00,14,-1.30
2018,11,19,00,15,-1.30
2018,11,19,00,16,-1.30
2018,11,19,00,17,-1.30
2018,11,19,00,18,-1.30
2018,11,19,00,19,-1.30
2018,11,19,00,20,-1.30
2018,11,19,00,21,-1.40
2018,11,19,00,22,-1.40
2018,11,19,00,23,-1.40
2018,11,19,00,24,-1.40
2018,11,19,00,25,-1.40
2018,11,19,00,26,-1.40
2018,11,19,00,27,-1.40
2018,11,19,00,28,-1.40
2018,11,19,00,29,-1.40
2018,11,19,00,30,-1.40
2018,11,19,00,31,-1.40
2018,11,19,00,32,-1.40
2018,11,19,00,33,-1.50
2018,11,19,00,34,-1.50
2018,11,19,00,35,-1.50
2018,11,19,00,36,-1.50
2018,11,19,00,37,-1.50
2018,11,19,00,38,-1.50
2018,11,19,00,39,-1.50
2018,11,19,00,40,-1.50
2018,11,19,00,41,-1.50
2018,11,19,00,42,-1.50
2018,11,19,00,43,-1.50
2018,11,19,00,44,-1.50
2018,11,19,00,45,-1.50
2018,11,19,00,46,-1.50
2018,11,19,00,47,-1.60
2018,11,19,00,48,-1.50
2018,11,19,00,49,-1.60
2018,11,19,00,50,-1.60
2018,11,19,00,51,-1.60
2018,11,19,00,52,-1.50
2018,11,19,00,53,-1.50
2018,11,19,00,54,-1.50
2018,11,19,00,55,-1.50
2018,11,19,00,56,-1.50
2018,11,19,00,57,-1.50
2018,11,19,00,58,-1.50
2018,11,19,00,59,-1.50
2018,11,19,01,00,-1.50
2018,11,19,01,01,-1.50
2018,11,19,01,02,-1.50
2018,11,19,01,03,-1.50
2018,11,19,01,04,-1.50
2018,11,19,01,05,-1.50
2018,11,19,01,06,-1.50
2018,11,19,01,07,-1.50
2018,11,19,01,08,-1.50
2018,11,19,01,09,-1.50
2018,11,19,01,10,-1.50
2018,11,19,01,11,-1.50
2018,11,19,01,12,-1.50
2018,11,19,01,13,-1.50
2018,11,19,01,14,-1.50
2018,11,19,01,15,-1.50
2018,11,19,01,16,-1.50
2018,11,19,01,17,-1.50
2018,11,19,01,18,-1.60
2018,11,19,01,19,-1.60
2018,11,19,01,20,-1.60
2018,11,19,01,21,-1.60
2018,11,19,01,22,-1.60
2018,11,19,01,23,-1.60
2018,11,19,01,24,-1.60
2018,11,19,01,25,-1.60
2018,11,19,01,26,-1.60
2018,11,19,01,27,-1.60
2018,11,19,01,28,-1.60
2018,11,19,01,29,-1.60
2018,11,19,01,30,-1.70
2018,11,19,01,31,-1.70
2018,11,19,01,32,-1.70
2018,11,19,01,33,-1.70
2018,11,19,01,34,-1.70
2018,11,19,01,35,-1.70
2018,11,19,01,36,-1.70
2018,11,19,01,37,-1.70
2018,11,19,01,38,-1.70
2018,11,19,01,39,-1.70
2018,11,19,01,40,-1.70
2018,11,19,01,41,-1.70
2018,11,19,01,42,-1.70
2018,11,19,01,43,-1.70
2018,11,19,01,44,-1.70
2018,11,19,01,45,-1.70
2018,11,19,01,46,-1.70
2018,11,19,01,47,-1.70
2018,11,19,01,48,-1.70
2018,11,19,01,49,-1.70
2018,11,19,01,50,-1.70
2018,11,19,01,51,-1.70
2018,11,19,01,52,-1.70
2018,11,19,01,53,-1.70
2018,11,19,01,54,-1.70
2018,11,19,01,55,-1.70
2018,11,19,01,56,-1.80
2018,11,19,01,57,-1.80
2018,11,19,01,58,-1.70
2018,11,19,01,59,-1.70
2018,11,19,02,00,-1.70
2018,11,19,02,01,-1.70
2018,11,19,02,02,-1.70
2018,11,19,02,03,-1.70
2018,11,19,02,04,-1.70
2018,11,19,02,05,-1.70
2018,11,19,02,06,-1.70
2018,11,19,02,07,-1.70
2018,11,19,02,08,-1.70
2018,11,19,02,09,-1.70
2018,11,19,02,10,-1.70
2018,11,19,02,11,-1.70
2018,11,19,02,12,-1.70
2018,11,19,02,13,-1.80
2018,11,19,02,14,-1.80
2018,11,19,02,15,-1.80
2018,11,19,02,16,-1.80
2018,11,19,02,17,-1.80
2018,11,19,02,18,-1.80
2018,11,19,02,19,-1.80
2018,11,19,02,20,-1.80
2018,11,19,02,21,-1.80
2018,11,19,02,22,-1.80
2018,11,19,02,23,-1.80
2018,11,19,02,24,-1.80
2018,11,19,02,25,-1.80
2018,11,19,02,26,-1.90
2018,11,19,02,27,-1.90
2018,11,19,02,28,-1.90
2018,11,19,02,29,-1.80
2018,11,19,02,30,-1.80
2018,11,19,02,31,-1.80
2018,11,19,02,32,-1.80
2018,11,19,02,33,-1.80
2018,11,19,02,34,-1.80
2018,11,19,02,35,-1.80
2018,11,19,02,36,-1.80
2018,11,19,02,37,-1.80
2018,11,19,02,38,-1.80
2018,11,19,02,39,-1.80
2018,11,19,02,40,-1.80
2018,11,19,02,41,-1.80
2018,11,19,02,42,-1.80
2018,11,19,02,43,-1.80
2018,11,19,02,44,-1.80
2018,11,19,02,45,-1.90
2018,11,19,02,46,-1.90
2018,11,19,02,47,-1.90
2018,11,19,02,48,-1.90
2018,11,19,02,49,-1.90
2018,11,19,02,50,-1.90
2018,11,19,02,51,-1.90
2018,11,19,02,52,-1.90
2018,11,19,02,53,-1.90
2018,11,19,02,54,-1.90
2018,11,19,02,55,-1.90
2018,11,19,02,56,-1.90
2018,11,19,02,57,-1.90
2018,11,19,02,58,-1.90
2018,11,19,02,59,-1.90
2018,11,19,03,00,-1.90
2018,11,19,03,01,-1.90
2018,11,19,03,02,-1.90
2018,11,19,03,03,-1.90
2018,11,19,03,04,-1.90
2018,11,19,03,05,-1.90
2018,11,19,03,06,-1.90
2018,11,19,03,07,-1.90
2018,11,19,03,08,-1.90
2018,11,19,03,09,-1.90
2018,11,19,03,10,-1.90
2018,11,19,03,11,-1.90
2018,11,19,03,12,-1.90
2018,11,19,03,13,-1.90
2018,11,19,03,14,-1.90
2018,11,19,03,15,-1.90
2018,11,19,03,16,-1.90
2018,11,19,03,17,-1.90
2018,11,19,03,18,-1.90
2018,11,19,03,19,-1.90
2018,11,19,03,20,-1.90
2018,11,19,03,21,-1.90
2018,11,19,03,22,-1.90
2018,11,19,03,23,-1.90
2018,11,19,03,24,-1.90
2018,11,19,03,25,-1.90
2018,11,19,03,26,-1.90
2018,11,19,03,27,-1.90
2018,11,19,03,28,-1.90
2018,11,19,03,29,-1.90
2018,11,19,03,30,-1.90
2018,11,19,03,31,-1.90
2018,11,19,03,32,-1.90
2018,11,19,03,33,-1.90
2018,11,19,03,34,-1.90
2018,11,19,03,35,-1.90
2018,11,19,03,36,-1.90
2018,11,19,03,37,-1.90
2018,11,19,03,38,-1.90
2018,11,19,03,39,-1.90
2018,11,19,03,40,-1.90
2018,11,19,03,41,-1.90
2018,11,19,03,42,-2.00
2018,11,19,03,43,-2.00
2018,11,19,03,44,-2.00
2018,11,19,03,45,-2.00
2018,11,19,03,46,-2.00
2018,11,19,03,47,-2.00
2018,11,19,03,48,-2.10
2018,11,19,03,49,-2.10
2018,11,19,03,50,-2.10
2018,11,19,03,51,-2.10
2018,11,19,03,52,-2.10
2018,11,19,03,53,-2.10
2018,11,19,03,54,-2.10
2018,11,19,03,55,-2.10
2018,11,19,03,56,-2.10
2018,11,19,03,57,-2.10
2018,11,19,03,58,-2.10
2018,11,19,03,59,-2.10
2018,11,19,04,00,-2.10
2018,11,19,04,01,-2.10
2018,11,19,04,02,-2.20
2018,11,19,04,03,-2.20
2018,11,19,04,04,-2.20
2018,11,19,04,05,-2.20
2018,11,19,04,06,-2.20
2018,11,19,04,07,-2.20
2018,11,19,04,08,-2.20
2018,11,19,04,09,-2.20
2018,11,19,04,10,-2.20
2018,11,19,04,11,-2.20
2018,11,19,04,12,-2.20
2018,11,19,04,13,-2.20
2018,11,19,04,14,-2.20
2018,11,19,04,15,-2.20
2018,11,19,04,16,-2.20
2018,11,19,04,17,-2.20
2018,11,19,04,18,-2.20
2018,11,19,04,19,-2.20
2018,11,19,04,20,-2.20
2018,11,19,04,21,-2.20
2018,11,19,04,22,-2.20
2018,11,19,04,23,-2.20
2018,11,19,04,24,-2.20
2018,11,19,04,25,-2.20
2018,11,19,04,26,-2.20
2018,11,19,04,27,-2.20
2018,11,19,04,28,-2.20
2018,11,19,04,29,-2.20
2018,11,19,04,30,-2.20
2018,11,19,04,31,-2.20
2018,11,19,04,32,-2.20
2018,11,19,04,33,-2.20
2018,11,19,04,34,-2.20
2018,11,19,04,35,-2.20
2018,11,19,04,36,-2.20
2018,11,19,04,37,-2.20
2018,11,19,04,38,-2.20
2018,11,19,04,39,-2.20
2018,11,19,04,40,-2.20
2018,11,19,04,41,-2.20
2018,11,19,04,42,-2.20
2018,11,19,04,43,-2.20
2018,11,19,04,44,-2.20
2018,11,19,04,45,-2.30
2018,11,19,04,46,-2.30
2018,11,19,04,47,-2.30
2018,11,19,04,48,-2.30
2018,11,19,04,49,-2.30
2018,11,19,04,50,-2.30
2018,11,19,04,51,-2.30
2018,11,19,04,52,-2.30
2018,11,19,04,53,-2.30
2018,11,19,04,54,-2.30
2018,11,19,04,55,-2.30
2018,11,19,04,56,-2.30
2018,11,19,04,57,-2.30
2018,11,19,04,58,-2.30
2018,11,19,04,59,-2.30
2018,11,19,05,00,-2.30
2018,11,19,05,01,-2.30
2018,11,19,05,02,-2.30
2018,11,19,05,03,-2.30
2018,11,19,08,26,-2.20
2018,11,19,08,27,-2.10
2018,11,19,08,28,-2.10
2018,11,19,08,29,-2.10
2018,11,19,08,30,-2.10
2018,11,19,08,31,-2.00
2018,11,19,08,32,-2.00
2018,11,19,08,33,-2.00
2018,11,19,08,34,-1.90
2018,11,19,08,35,-1.90
2018,11,19,08,36,-1.80
2018,11,19,08,37,-1.80
2018,11,19,08,38,-1.80
2018,11,19,08,39,-1.70
2018,11,19,08,40,-1.70
2018,11,19,08,41,-1.60
2018,11,19,08,42,-1.60
2018,11,19,08,43,-1.50
2018,11,19,08,44,-1.50
2018,11,19,08,45,-1.50
2018,11,19,08,46,-1.40
2018,11,19,08,47,-1.40
2018,11,19,08,48,-1.30
2018,11,19,08,49,-1.30
2018,11,19,08,50,-1.30
2018,11,19,08,51,-1.30
2018,11,19,08,52,-1.30
2018,11,19,08,53,-1.20
2018,11,19,08,54,-1.20
2018,11,19,08,55,-1.20
2018,11,19,08,56,-1.20
2018,11,19,08,57,-1.20
2018,11,19,08,58,-1.10
2018,11,19,08,59,-1.10
2018,11,19,09,00,-1.00
2018,11,19,09,01,-1.00
2018,11,19,09,02,-0.90
2018,11,19,09,03,-0.90
2018,11,19,09,04,-0.90
2018,11,19,09,05,-0.80
2018,11,19,09,06,-0.70
2018,11,19,09,07,-0.70
2018,11,19,09,08,-0.70
2018,11,19,09,09,-0.50
2018,11,19,09,10,-0.30
2018,11,19,09,11,-0.10
2018,11,19,09,12,0.00
2018,11,19,09,13,0.10
2018,11,19,09,14,0.20
2018,11,19,09,15,0.30
2018,11,19,09,16,0.40
2018,11,19,09,17,0.50
2018,11,19,09,18,0.50
2018,11,19,09,19,0.60
2018,11,19,09,20,0.60
2018,11,19,09,21,0.60
2018,11,19,09,22,0.60
2018,11,19,09,23,0.80
2018,11,19,09,24,0.80
2018,11,19,09,25,0.80
2018,11,19,09,26,0.90
2018,11,19,09,27,0.90
2018,11,19,09,28,1.00
2018,11,19,09,29,1.00
2018,11,19,09,30,1.10
2018,11,19,09,31,1.20
2018,11,19,09,32,1.30
2018,11,19,09,33,1.30
2018,11,19,09,34,1.30
2018,11,19,09,35,1.40
2018,11,19,09,36,1.60
2018,11,19,09,37,1.70
2018,11,19,09,38,1.80
2018,11,19,09,39,1.80
2018,11,19,09,40,1.80
2018,11,19,09,41,1.80
2018,11,19,09,42,1.80
2018,11,19,09,43,1.90
2018,11,19,09,44,2.00
2018,11,19,09,45,2.10
2018,11,19,09,46,2.20
2018,11,19,09,47,2.30
2018,11,19,09,48,2.40
2018,11,19,09,49,2.50
2018,11,19,09,50,2.50
2018,11,19,09,51,2.50
2018,11,19,09,52,2.50
2018,11,19,09,53,2.50
2018,11,19,09,54,2.40
2018,11,19,09,55,2.40
2018,11,19,09,56,2.40
2018,11,19,09,57,2.40
2018,11,19,09,58,2.50
2018,11,19,09,59,2.50
2018,11,19,10,00,2.50
2018,11,19,10,01,2.60
2018,11,19,10,02,2.60
2018,11,19,10,03,2.70
2018,11,19,10,04,2.70
2018,11,19,10,05,2.80
2018,11,19,10,06,2.90
2018,11,19,10,07,2.90
2018,11,19,10,08,3.00
2018,11,19,10,09,3.20
2018,11,19,10,10,3.30
2018,11,19,10,11,3.40
2018,11,19,10,12,3.50
2018,11,19,10,13,3.60
2018,11,19,10,14,3.80
2018,11,19,10,15,3.90
2018,11,19,10,16,4.00
2018,11,19,10,17,4.10
2018,11,19,10,18,4.20
2018,11,19,10,19,4.20
2018,11,19,10,20,4.20
2018,11,19,10,21,4.30
2018,11,19,10,22,4.30
2018,11,19,10,23,4.30
2018,11,19,10,24,4.40
2018,11,19,10,25,4.40
2018,11,19,10,26,4.40
2018,11,19,10,27,4.40
2018,11,19,10,28,4.50
2018,11,19,10,29,4.60
2018,11,19,10,30,4.60
2018,11,19,10,31,4.60
2018,11,19,10,32,4.60
2018,11,19,10,33,4.70
2018,11,19,10,34,4.70
2018,11,19,10,35,4.70
2018,11,19,10,36,4.80
2018,11,19,10,37,4.90
2018,11,19,10,38,4.90
2018,11,19,10,39,5.00
2018,11,19,10,40,4.90
2018,11,19,10,41,4.90
2018,11,19,10,42,4.90
2018,11,19,10,43,4.80
2018,11,19,10,44,4.90
2018,11,19,10,45,4.90
2018,11,19,10,46,5.00
2018,11,19,10,47,5.10
2018,11,19,10,48,5.10
2018,11,19,10,49,5.10
2018,11,19,10,50,5.20
2018,11,19,10,51,5.20
2018,11,19,10,52,5.30
2018,11,19,10,53,5.30
2018,11,19,10,54,5.40
2018,11,19,10,55,5.40
2018,11,19,10,56,5.40
2018,11,19,10,57,5.50
2018,11,19,10,58,5.60
2018,11,19,10,59,5.60
2018,11,19,11,00,5.70
2018,11,19,11,01,5.90
2018,11,19,11,02,5.90
2018,11,19,11,03,6.20
2018,11,19,11,04,6.30
2018,11,19,11,05,6.50
2018,11,19,11,06,6.50
2018,11,19,11,07,6.60
2018,11,19,11,08,6.80
2018,11,19,11,09,6.80
2018,11,19,11,10,6.90
2018,11,19,11,11,7.00
2018,11,19,11,12,7.20
2018,11,19,11,13,7.30
2018,11,19,11,14,7.40
2018,11,19,11,15,7.40
2018,11,19,11,16,7.50
2018,11,19,11,17,7.60
2018,11,19,11,18,7.70
2018,11,19,11,19,7.80
2018,11,19,11,20,7.90
2018,11,19,11,21,8.00
2018,11,19,11,22,8.10
2018,11,19,11,23,8.20
2018,11,19,11,24,8.20
2018,11,19,11,25,8.20
2018,11,19,11,26,8.30
2018,11,19,11,27,8.30
2018,11,19,11,28,8.30
2018,11,19,11,29,8.30
2018,11,19,11,30,8.40
2018,11,19,11,31,8.40
2018,11,19,11,32,8.40
2018,11,19,11,33,8.60
2018,11,19,11,34,8.70
2018,11,19,11,35,8.70
2018,11,19,11,36,8.80
2018,11,19,11,37,8.80
2018,11,19,11,38,8.80
2018,11,19,11,39,8.80
2018,11,19,11,40,8.80
2018,11,19,11,41,8.90
2018,11,19,11,42,8.90
2018,11,19,11,43,9.00
2018,11,19,11,44,9.00
2018,11,19,11,45,9.10
2018,11,19,11,46,9.10
2018,11,19,11,47,9.10
2018,11,19,11,48,9.10
2018,11,19,11,49,9.10
2018,11,19,11,50,9.20
2018,11,19,11,51,9.20
2018,11,19,11,52,9.30
2018,11,19,11,53,9.30
2018,11,19,11,54,9.40
2018,11,19,11,55,9.40
2018,11,19,11,56,9.40
2018,11,19,11,57,9.40
2018,11,19,11,58,9.50
2018,11,19,11,59,9.50
2018,11,19,12,00,9.50
2018,11,19,12,01,9.50
2018,11,19,12,02,9.60
2018,11,19,12,03,9.60
2018,11,19,12,04,9.60
2018,11,19,12,05,9.70
2018,11,19,12,06,9.70
2018,11,19,12,07,9.80
2018,11,19,12,08,9.80
2018,11,19,12,09,9.80
2018,11,19,12,10,9.80
2018,11,19,12,11,9.90
2018,11,19,12,12,9.90
2018,11,19,12,13,10.00
2018,11,19,12,14,10.00
2018,11,19,12,15,10.00
2018,11,19,12,16,10.00
2018,11,19,12,17,10.00
2018,11,19,12,18,10.00
2018,11,19,12,19,9.90
2018,11,19,12,20,10.00
2018,11,19,12,21,10.00
2018,11,19,12,22,10.00
2018,11,19,12,23,10.10
2018,11,19,12,24,10.10
2018,11,19,12,25,10.00
2018,11,19,12,26,10.00
2018,11,19,12,27,10.00
2018,11,19,12,28,9.90
2018,11,19,12,29,9.90
2018,11,19,12,30,9.90
2018,11,19,12,31,9.90
2018,11,19,12,32,9.90
2018,11,19,12,33,9.90
2018,11,19,12,34,9.90
2018,11,19,12,35,9.90
2018,11,19,12,36,9.90
2018,11,19,12,37,10.00
2018,11,19,12,38,10.00
2018,11,19,12,39,10.00
2018,11,19,12,40,10.10
2018,11,19,12,41,10.10
2018,11,19,12,42,10.10
2018,11,19,12,43,10.10
2018,11,19,12,44,10.20
2018,11,19,12,45,10.20
2018,11,19,12,46,10.20
2018,11,19,12,47,10.20
2018,11,19,12,48,10.20
2018,11,19,12,49,10.20
2018,11,19,12,50,10.20
2018,11,19,12,51,10.20
2018,11,19,12,52,10.20
2018,11,19,12,53,10.20
2018,11,19,12,54,10.20
2018,11,19,12,55,10.20
2018,11,19,12,56,10.20
2018,11,19,12,57,10.20
2018,11,19,12,58,10.20
2018,11,19,12,59,10.20
2018,11,19,13,00,10.20
2018,11,19,13,01,10.20
2018,11,19,13,02,10.20
2018,11,19,13,03,10.20
2018,11,19,13,04,10.20
2018,11,19,13,05,10.20
2018,11,19,13,06,10.20
2018,11,19,13,07,10.10
2018,11,19,13,08,10.10
2018,11,19,13,09,10.10
2018,11,19,13,10,10.10
2018,11,19,13,11,10.10
2018,11,19,13,12,10.10
2018,11,19,13,13,10.00
2018,11,19,13,14,10.00
2018,11,19,13,15,10.00
2018,11,19,13,16,10.00
2018,11,19,13,17,10.00
2018,11,19,13,18,10.00
2018,11,19,13,19,10.00
2018,11,19,13,20,10.00
2018,11,19,13,21,10.00
2018,11,19,13,22,9.90
2018,11,19,13,23,9.90
2018,11,19,13,24,9.90
2018,11,19,13,25,9.90
2018,11,19,13,26,9.90
2018,11,19,13,27,10.00
2018,11,19,13,28,10.00
2018,11,19,13,29,10.00
2018,11,19,13,30,10.10
2018,11,19,13,31,10.10
2018,11,19,13,32,10.10
2018,11,19,13,33,10.10
2018,11,19,13,34,10.10
2018,11,19,13,35,10.20
2018,11,19,13,36,10.20
2018,11,19,13,37,10.20
2018,11,19,13,38,10.20
2018,11,19,13,39,10.10
2018,11,19,13,40,10.10
2018,11,19,13,41,10.10
2018,11,19,13,42,10.10
2018,11,19,13,43,10.10
2018,11,19,13,44,10.10
2018,11,19,13,45,10.10
2018,11,19,13,46,10.10
2018,11,19,13,47,10.10
2018,11,19,13,48,10.10
2018,11,19,13,49,10.00
2018,11,19,13,50,10.00
2018,11,19,13,51,10.00
2018,11,19,13,52,10.00
2018,11,19,13,53,9.90
2018,11,19,13,54,9.90
2018,11,19,13,55,9.90
2018,11,19,13,56,9.90
2018,11,19,13,57,9.90
2018,11,19,13,58,9.90
2018,11,19,13,59,9.90
2018,11,19,14,00,9.90
2018,11,19,14,01,10.00
2018,11,19,14,02,10.00
2018,11,19,14,03,10.10
2018,11,19,14,04,10.10
2018,11,19,14,05,10.10
2018,11,19,14,06,10.10
2018,11,19,14,07,10.20
2018,11,19,14,08,10.20
2018,11,19,14,09,10.20
2018,11,19,14,10,10.20
2018,11,19,14,11,10.20
2018,11,19,14,12,10.20
2018,11,19,14,13,10.20
2018,11,19,14,14,10.20
2018,11,19,14,15,10.30
2018,11,19,14,16,10.20
2018,11,19,14,17,10.30
2018,11,19,14,18,10.30
2018,11,19,14,19,10.30
2018,11,19,14,20,10.30
2018,11,19,14,21,10.30
2018,11,19,14,22,10.30
2018,11,19,14,23,10.30
2018,11,19,14,24,10.30
2018,11,19,14,25,10.30
2018,11,19,14,26,10.30
2018,11,19,14,27,10.30
2018,11,19,14,28,10.30
2018,11,19,14,29,10.20
2018,11,19,14,30,10.20
2018,11,19,14,31,10.20
2018,11,19,14,32,10.10
2018,11,19,14,33,10.10
2018,11,19,14,34,10.10
2018,11,19,14,35,10.10
2018,11,19,14,36,10.00
2018,11,19,14,37,9.90
2018,11,19,14,38,9.90
2018,11,19,14,39,9.80
2018,11,19,14,40,9.80
2018,11,19,14,41,9.80
2018,11,19,14,42,9.80
2018,11,19,14,43,9.80
2018,11,19,14,44,9.80
2018,11,19,14,45,9.80
2018,11,19,14,46,9.80
2018,11,19,14,47,9.70
2018,11,19,14,48,9.70
2018,11,19,14,49,9.70
2018,11,19,14,50,9.70
2018,11,19,14,51,9.70
2018,11,19,14,52,9.70
2018,11,19,14,53,9.70
2018,11,19,14,54,9.60
2018,11,19,14,55,9.60
2018,11,19,14,56,9.60
2018,11,19,14,57,9.60
2018,11,19,14,58,9.60
2018,11,19,14,59,9.60
2018,11,19,15,00,9.50
2018,11,19,15,01,9.50
2018,11,19,15,02,9.50
2018,11,19,15,03,9.40
2018,11,19,15,04,9.40
2018,11,19,15,05,9.40
2018,11,19,15,06,9.40
2018,11,19,15,07,9.40
2018,11,19,15,08,9.40
2018,11,19,15,09,9.40
2018,11,19,15,10,9.30
2018,11,19,15,11,9.30
2018,11,19,15,12,9.30
2018,11,19,15,13,9.30
2018,11,19,15,14,9.30
2018,11,19,15,15,9.20
2018,11,19,15,16,9.20
2018,11,19,15,17,9.20
2018,11,19,15,18,9.10
2018,11,19,15,19,9.10
2018,11,19,15,20,9.10
2018,11,19,15,21,9.10
2018,11,19,15,22,9.10
2018,11,19,15,23,9.00
2018,11,19,15,24,9.00
2018,11,19,15,25,8.90
2018,11,19,15,26,8.90
2018,11,19,15,27,8.90
2018,11,19,15,28,8.80
2018,11,19,15,29,8.80
2018,11,19,15,30,8.70
2018,11,19,15,31,8.70
2018,11,19,15,32,8.60
2018,11,19,15,33,8.60
2018,11,19,15,34,8.60
2018,11,19,15,35,8.60
2018,11,19,15,36,8.60
2018,11,19,15,37,8.60
2018,11,19,15,38,8.60
2018,11,19,15,39,8.60
2018,11,19,15,40,8.60
2018,11,19,15,41,8.60
2018,11,19,15,42,8.30
2018,11,19,15,43,8.20
2018,11,19,15,44,8.20
2018,11,19,15,45,8.20
2018,11,19,15,46,8.10
2018,11,19,15,47,8.00
2018,11,19,15,48,8.00
2018,11,19,15,49,8.00
2018,11,19,15,50,7.90
2018,11,19,15,51,7.90
2018,11,19,15,52,7.90
2018,11,19,15,53,7.90
2018,11,19,15,54,7.80
2018,11,19,15,55,7.80
2018,11,19,15,56,7.80
2018,11,19,15,57,7.80
2018,11,19,15,58,7.80
2018,11,19,15,59,7.80
2018,11,19,16,00,7.80
2018,11,19,16,01,7.80
2018,11,19,16,02,7.70
2018,11,19,16,03,7.70
2018,11,19,16,04,7.70
2018,11,19,16,05,7.60
2018,11,19,16,06,7.60
2018,11,19,16,07,7.60
2018,11,19,16,08,7.50
2018,11,19,16,09,7.50
2018,11,19,16,10,7.40
2018,11,19,16,11,7.40
2018,11,19,16,12,7.40
2018,11,19,16,13,7.30
2018,11,19,16,14,7.30
2018,11,19,16,15,7.30
2018,11,19,16,16,7.30
2018,11,19,16,17,7.20
2018,11,19,16,18,7.20
2018,11,19,16,19,7.20
2018,11,19,16,20,7.20
2018,11,19,16,21,7.20
2018,11,19,16,22,7.20
2018,11,19,16,23,7.20
2018,11,19,16,24,7.20
2018,11,19,16,25,7.20
2018,11,19,16,26,7.20
2018,11,19,16,27,7.10
2018,11,19,16,28,7.10
2018,11,19,16,29,7.00
2018,11,19,16,30,7.00
2018,11,19,16,31,6.90
2018,11,19,16,32,6.90
2018,11,19,16,33,6.80
2018,11,19,16,34,6.80
2018,11,19,16,35,6.70
2018,11,19,16,36,6.70
2018,11,19,16,37,6.60
2018,11,19,16,38,6.50
2018,11,19,16,39,6.50
2018,11,19,16,40,6.40
2018,11,19,16,41,6.30
2018,11,19,16,42,6.30
2018,11,19,16,43,6.20
2018,11,19,16,44,6.20
2018,11,19,16,45,6.10
2018,11,19,16,46,6.10
2018,11,19,16,47,6.00
2018,11,19,16,48,5.90
2018,11,19,16,49,5.90
2018,11,19,16,50,5.80
2018,11,19,16,51,5.80
2018,11,19,16,52,5.70
2018,11,19,16,53,5.60
2018,11,19,16,54,5.60
2018,11,19,16,55,5.50
2018,11,19,16,56,5.40
2018,11,19,16,57,5.40
2018,11,19,16,58,5.30
2018,11,19,16,59,5.20
2018,11,19,17,00,5.10
2018,11,19,17,01,5.10
2018,11,19,17,02,5.00
2018,11,19,17,03,5.00
2018,11,19,17,04,4.90
2018,11,19,17,05,4.80
2018,11,19,17,06,4.70
2018,11,19,17,07,4.70
2018,11,19,17,08,4.60
2018,11,19,17,09,4.50
2018,11,19,17,10,4.50
2018,11,19,17,11,4.40
2018,11,19,17,12,4.30
2018,11,19,17,13,4.20
2018,11,19,17,14,4.20
2018,11,19,17,15,4.10
2018,11,19,17,16,4.00
2018,11,19,17,17,4.00
2018,11,19,17,18,3.90
2018,11,19,17,19,3.80
2018,11,19,17,20,3.80
2018,11,19,17,21,3.80
2018,11,19,17,22,3.70
2018,11,19,17,23,3.70
2018,11,19,17,24,3.70
2018,11,19,17,25,3.60
2018,11,19,17,26,3.60
2018,11,19,17,27,3.60
2018,11,19,17,28,3.50
2018,11,19,17,29,3.50
2018,11,19,17,30,3.50
2018,11,19,17,31,3.40
2018,11,19,17,32,3.40
2018,11,19,17,33,3.40
2018,11,19,17,34,3.30
2018,11,19,17,35,3.30
2018,11,19,17,36,3.30
2018,11,19,17,37,3.30
2018,11,19,17,38,3.20
2018,11,19,17,39,3.20
2018,11,19,17,40,3.20
2018,11,19,17,41,3.10
2018,11,19,17,42,3.10
2018,11,19,17,43,3.10
2018,11,19,17,44,3.00
2018,11,19,17,45,3.00
2018,11,19,17,46,3.00
2018,11,19,17,47,2.90
2018,11,19,17,48,2.90
2018,11,19,17,49,2.90
2018,11,19,17,50,2.90
2018,11,19,17,51,2.80
2018,11,19,17,52,2.80
2018,11,19,17,53,2.80
2018,11,19,17,54,2.80
2018,11,19,17,55,2.80
2018,11,19,17,56,2.70
2018,11,19,17,57,2.70
2018,11,19,17,58,2.70
2018,11,19,17,59,2.60
2018,11,19,18,00,2.60
2018,11,19,18,01,2.60
2018,11,19,18,02,2.50
2018,11,19,18,03,2.50
2018,11,19,18,04,2.50
2018,11,19,18,05,2.40
2018,11,19,18,06,2.40
2018,11,19,18,07,2.40
2018,11,19,18,08,2.40
2018,11,19,18,09,2.40
2018,11,19,18,10,2.30
2018,11,19,18,11,2.30
2018,11,19,18,12,2.30
2018,11,19,18,13,2.30
2018,11,19,18,14,2.30
2018,11,19,18,15,2.20
2018,11,19,18,16,2.20
2018,11,19,18,17,2.20
2018,11,19,18,18,2.20
2018,11,19,18,19,2.20
2018,11,19,18,20,2.20
2018,11,19,18,21,2.10
2018,11,19,18,22,2.10
2018,11,19,18,23,2.10
2018,11,19,18,24,2.10
2018,11,19,18,25,2.10
2018,11,19,18,26,2.10
2018,11,19,18,27,2.00
2018,11,19,18,28,2.00
2018,11,19,18,29,1.90
2018,11,19,18,30,1.90
2018,11,19,18,31,1.90
2018,11,19,18,32,1.90
2018,11,19,18,33,1.90
2018,11,19,18,34,1.90
2018,11,19,18,35,1.80
2018,11,19,18,36,1.80
2018,11,19,18,37,1.80
2018,11,19,18,38,1.80
2018,11,19,18,39,1.80
2018,11,19,18,40,1.80
2018,11,19,18,41,1.80
2018,11,19,18,42,1.80
2018,11,19,18,43,1.80
2018,11,19,18,44,1.80
2018,11,19,18,45,1.80
2018,11,19,18,46,1.80
2018,11,19,19,02,1.30
2018,11,19,19,03,1.30
2018,11,19,19,04,1.30
2018,11,19,19,05,1.30
2018,11,19,19,06,1.30
2018,11,19,19,07,1.30
2018,11,19,19,08,1.30
2018,11,19,19,09,1.30
2018,11,19,19,10,1.30
2018,11,19,19,11,1.30
2018,11,19,19,12,1.30
2018,11,19,19,13,1.30
2018,11,19,19,14,1.30
2018,11,19,19,15,1.30
2018,11,19,19,16,1.30
2018,11,19,19,17,1.30
2018,11,19,19,18,1.30
2018,11,19,19,19,1.30
2018,11,19,19,20,1.30
2018,11,19,19,21,1.30
2018,11,19,19,22,1.30
2018,11,19,19,23,1.30
2018,11,19,19,24,1.30
2018,11,19,19,25,1.30
2018,11,19,19,26,1.30
2018,11,19,19,27,1.20
2018,11,19,19,28,1.20
2018,11,19,19,29,1.20
2018,11,19,19,30,1.20
2018,11,19,19,31,1.20
2018,11,19,19,32,1.20
2018,11,19,19,33,1.20
2018,11,19,19,34,1.20
2018,11,19,19,35,1.20
2018,11,19,19,36,1.10
2018,11,19,19,37,1.10
2018,11,19,19,38,1.10
2018,11,19,19,39,1.10
2018,11,19,19,40,1.10
2018,11,19,19,41,1.10
2018,11,19,19,42,1.10
2018,11,19,19,43,1.00
2018,11,19,19,44,1.00
2018,11,19,19,45,1.00
2018,11,19,19,46,1.00
2018,11,19,19,47,1.00
2018,11,19,19,48,1.00
2018,11,19,19,49,1.00
2018,11,19,19,50,1.00
2018,11,19,19,51,1.00
2018,11,19,19,52,1.00
2018,11,19,19,53,1.00
2018,11,19,19,54,1.00
2018,11,19,19,55,0.90
2018,11,19,19,56,0.90
2018,11,19,19,57,1.00
2018,11,19,19,58,1.00
2018,11,19,19,59,0.90
2018,11,19,20,00,0.90
2018,11,19,20,01,0.90
2018,11,19,20,02,0.90
2018,11,19,20,03,0.90
2018,11,19,20,04,0.90
2018,11,19,20,05,0.90
2018,11,19,20,06,0.90
2018,11,19,20,07,0.90
2018,11,19,20,08,0.90
2018,11,19,20,09,0.90
2018,11,19,20,10,0.90
2018,11,19,20,11,0.90
2018,11,19,20,12,0.90
2018,11,19,20,13,0.90
2018,11,19,20,14,0.90
2018,11,19,20,15,0.90
2018,11,19,20,16,0.90
2018,11,19,20,17,0.80
2018,11,19,20,18,0.80
2018,11,19,20,19,0.80
2018,11,19,20,20,0.80
2018,11,19,20,21,0.80
2018,11,19,20,22,0.80
2018,11,19,20,23,0.80
2018,11,19,20,24,0.80
2018,11,19,20,25,0.80
2018,11,19,20,26,0.80
2018,11,19,20,27,0.80
2018,11,19,20,28,0.80
2018,11,19,20,29,0.80
2018,11,19,20,30,0.80
2018,11,19,20,31,0.70
2018,11,19,20,32,0.70
2018,11,19,20,33,0.70
2018,11,19,20,34,0.70
2018,11,19,20,35,0.70
2018,11,19,20,36,0.70
2018,11,19,20,37,0.70
2018,11,19,20,38,0.60
2018,11,19,20,39,0.60
2018,11,19,20,40,0.60
2018,11,19,20,41,0.60
2018,11,19,20,42,0.60
2018,11,19,20,43,0.60
2018,11,19,20,44,0.60
2018,11,19,20,45,0.60
2018,11,19,20,46,0.60
2018,11,19,20,47,0.60
2018,11,19,20,48,0.60
2018,11,19,20,49,0.60
2018,11,19,20,50,0.60
2018,11,19,20,51,0.60
2018,11,19,20,52,0.60
2018,11,19,20,53,0.60
2018,11,19,20,54,0.60
2018,11,19,20,55,0.60
2018,11,19,20,56,0.70
2018,11,19,20,57,0.70
2018,11,19,20,58,0.70
2018,11,19,20,59,0.60
2018,11,19,21,00,0.60
2018,11,19,21,01,0.60
2018,11,19,21,02,0.60
2018,11,19,21,03,0.60
2018,11,19,21,04,0.60
2018,11,19,21,05,0.60
2018,11,19,21,06,0.60
2018,11,19,21,07,0.60
2018,11,19,21,08,0.60
2018,11,19,21,09,0.60
2018,11,19,21,10,0.60
2018,11,19,21,11,0.60
2018,11,19,21,12,0.60
2018,11,19,21,13,0.60
2018,11,19,21,14,0.60
2018,11,19,21,15,0.60
2018,11,19,21,16,0.60
2018,11,19,21,17,0.60
2018,11,19,21,18,0.50
2018,11,19,21,19,0.50
2018,11,19,21,20,0.50
2018,11,19,21,21,0.50
2018,11,19,21,22,0.50